This demonstration page uses our WeatherBlox Daily Observations layout. Learn more.

Left ArrowRight Arrow

Hourly Observations for August 15, 2022

Temp ( °F °C ) Dew Point ( °F °C ) Humidity (%) Winds ( mph kmh ) Pressure ( in mb ) Visibility ( mi km ) Precip ( " mm )
12:56 am 00:56 Clear 72 22.2 63 17.2 73 73 ESE 14 22 29.91 1013 10 16 0.00 0.00
1:56 am 01:56 Clear 70 21.1 64 17.8 81 81 ESE 10 17 29.91 1013 10 16 0.00 0.00
2:56 am 02:56 Clear 69 20.6 64 17.8 84 84 E 10 17 29.90 1013 10 16 0.00 0.00
3:56 am 03:56 Clear 68 20 64 17.8 87 87 ESE 8 13 29.90 1013 10 16 0.00 0.00
4:56 am 04:56 Clear 68 20 64 17.8 87 87 N 10 17 29.92 1013 10 16 0.00 0.00
5:56 am 05:56 Clear 67 19.4 64 17.8 90 90 N 10 17 29.92 1013 10 16 0.00 0.00
6:41 am 06:41 Mostly Cloudy 66 19 64 18 94 94 NNE 12 19 29.93 1013 10 16 0.00 0.00
6:56 am 06:56 Cloudy 67 19.4 64 17.8 90 90 NNE 13 20 29.93 1014 10 16 0.00 0.00
7:56 am 07:56 Cloudy 68 20 64 17.8 87 87 ENE 12 19 29.92 1013 10 16 0.00 0.00
8:08 am 08:08 Cloudy 68 20 64 18 88 88 ENE 12 19 29.91 1013 10 16 0.00 0.00
8:56 am 08:56 Cloudy 67 19.4 64 17.8 90 90 ENE 13 20 29.93 1013 10 16 0.00 0.00
9:12 am 09:12 Partly Cloudy 66 19 64 18 94 94 ENE 12 19 29.90 1013 10 16 0.00 0.00
9:19 am 09:19 Partly Cloudy 66 19 64 18 94 94 E 12 19 29.90 1013 10 16 0.00 0.00
9:42 am 09:42 Mostly Cloudy 66 19 64 18 94 94 NE 6 9 29.91 1013 10 16 0.00 0.00
9:56 am 09:56 Cloudy 67 19.4 65 18.3 93 93 E 9 15 29.93 1014 10 16 0.00 0.00
10:56 am 10:56 Cloudy 70 21.1 66 18.9 87 87 ESE 8 13 29.93 1014 10 16 0.00 0.00
11:21 am 11:21 Cloudy 72 22 66 19 83 83 E 6 9 29.91 1013 10 16 0.00 0.00
11:56 am 11:56 Cloudy 70 21.1 67 19.4 90 90 ENE 5 7 29.94 1014 10 16 0.00 0.00
12:56 pm 12:56 Mostly Cloudy 71 21.7 67 19.4 87 87 ENE 6 9 29.94 1014 10 16 0.00 0.00
1:56 pm 13:56 Mostly Cloudy 71 21.7 68 20 90 90 NNE 5 7 29.95 1014 10 16 0.00 0.00
2:56 pm 14:56 Cloudy 73 22.8 68 20 84 84 N 8 13 29.96 1014 10 16 0.00 0.00
3:56 pm 15:56 Cloudy 76 24.4 68 20 77 77 NNE 12 19 29.94 1014 10 16 0.00 0.00
4:56 pm 16:56 Cloudy 75 23.9 67 19.4 76 76 NNE 16 26 29.92 1013 10 16 0.00 0.00
5:56 pm 17:56 Cloudy 73 22.8 67 19.4 81 81 NE 15 24 29.93 1014 10 16 0.00 0.00
6:56 pm 18:56 Cloudy 70 21.1 67 19.4 90 90 NE 15 24 29.94 1014 9 14 0.00 0.00
7:22 pm 19:22 Cloudy with Mist and Fog 70 21 66 19 88 88 NE 13 20 29.91 1013 4 6 0.00 0.00
7:33 pm 19:33 Cloudy with Mist and Fog 70 21 66 19 88 88 NE 13 20 29.91 1013 2 3 0.00 0.00
7:56 pm 19:56 Cloudy 67 19.4 65 18.3 93 93 NE 17 28 29.96 1015 7 11 0.00 0.00
8:14 pm 20:14 Cloudy with Mist and Fog 66 19 64 18 94 94 NE 16 26 29.93 1014 3 4 0.00 0.00
8:29 pm 20:29 Cloudy with Mist and Fog 66 19 64 18 94 94 NE 16 26 29.94 1014 5 8 0.00 0.00
8:56 pm 20:56 Cloudy 67 19.4 65 18.3 93 93 ENE 14 22 29.97 1015 8 13 0.00 0.00
9:09 pm 21:09 Cloudy 66 19 64 18 94 94 E 15 24 29.96 1014 9 14 0.00 0.00
9:56 pm 21:56 Cloudy with Mist and Fog 65 18.3 63 17.2 93 93 E 17 28 30.00 1016 6 10 0.00 0.00
10:34 pm 22:34 Cloudy 64 18 63 17 94 94 NE 12 19 29.99 1016 8 13 0.00 0.00
10:56 pm 22:56 Cloudy 65 18.3 62 16.7 90 90 ENE 15 24 30.01 1016 8 13 0.00 0.00
11:56 pm 23:56 Cloudy with Light Rain 64 17.8 63 17.2 96 96 E 7 11 30.02 1017 9 14 0.01 0.13

Powered by AerisWeather